Regional Weather Roundup
Issued by NWS Charleston, SC

Current Version | Previous Version | Graphics & Text | Print | Product List | Glossary On
Versions: 1 2 3 4 5 6 7 8 9 10 11 12 13 14 15 16 17 18 19 20 21 22 23 24 25 26 27 28 29 30 31 32 33 34 35 36 37 38 39 40 41 42 43 44 45 46 47 48 49 50
805
ASUS42 KCHS 041128
RWRCHS

REGIONAL WEATHER ROUNDUP
NATIONAL WEATHER SERVICE CHARLESTON SC
700 AM EDT WED MAY 04 2016

NOTE: "FAIR" INDICATES FEW OR NO CLOUDS BELOW 12,000 FEET WITH NO
SIGNIFICANT WEATHER AND/OR OBSTRUCTIONS TO VISIBILITY.

NOT ALL STATIONS ARE QUALITY CONTROLLED. USE DATA WITH CAUTION...
ESPECIALLY DEWPOINT OBSERVATIONS.

SCZ027-030-031-034>040-042>050-041200-
...SOUTHEAST SOUTH CAROLINA...

CITY           SKY/WX    TMP DP  RH WIND       PRES   REMARKS
N CHARLESTON   MOCLDY    68  64  87 W7        29.73R
WATERFRONT PRK   N/A     69  67  93 W5        29.72R
MOUNT PLEASANT PTSUNNY   68  66  94 CALM      29.73S
JOHNS ISLAND   CLOUDY    68  68 100 W6        29.73F
PINOPOLIS        N/A     70  64  83 SW5       29.65R
MONCKS CORNER  CLOUDY    63  61  94 SW3       29.73R
SUMMERVILLE    CLOUDY    64  64 100 S3        29.74S
BEAUFORT MCAS  CLOUDY    68  66  93 SW6       29.75R
BEAUFORT ARPT  CLOUDY    68  66  94 W7        29.75S
HILTON HEAD IS CLOUDY    68  64  88 SW6       29.76R
WALTERBORO     CLOUDY    68  68 100 SW6       29.76R
ALLENDALE      CLOUDY    66  61  82 CALM      29.76R

...SOUTHERN MIDLANDS AND PEE DEE...

CITY           SKY/WX    TMP DP  RH WIND       PRES   REMARKS
GEORGETOWN     LGT RAIN  64  63  94 S5        29.73R
KINGSTREE      CLOUDY    64  63  94 CALM      29.71R
ORANGEBURG     CLOUDY    67  58  72 NW8       29.73R
BARNWELL       FAIR      66  63  88 W5        29.76R
AIKEN          FAIR      59  54  82 W6        29.79S
MANNING        FAIR      64  63  94 SW3       29.71S
COLUMBIA       PTCLDY    65  55  70 NW9       29.73R
SUMTER         MOCLDY    64  59  82 W8        29.69S
FLORENCE       MOCLDY    68  66  93 W3        29.69S
MYRTLE BEACH   MOCLDY    70  59  68 SW6       29.72S
N MYRTLE BEACH CLOUDY    68  64  87 SW5       29.69F

$$

GAZ063-065-086>088-099>101-113>116-118-119-134>141-150-041200-
...SOUTHEAST GEORGIA...

CITY           SKY/WX    TMP DP  RH WIND       PRES   REMARKS
SAVANNAH ARPT  CLOUDY    68  66  93 W7        29.77R
HUNTER AAF     MOCLDY    68  68 100 W7        29.74R
FORT STEWART   MOCLDY    67  65  93 CALM      29.75R
STATESBORO     CLOUDY    68  65  90 NW5       29.78R
SYLVANIA       CLOUDY    67  63  86 NW7       29.77S
CLAXTON        PTSUNNY   67  66  99 W3        29.78R

...CSRA...CENTRAL AND FAR SOUTHEAST GEORGIA...

CITY           SKY/WX    TMP DP  RH WIND       PRES   REMARKS
THOMSON        CLEAR     58  56  94 W3        29.82F
AUGUSTA-BUSH   CLEAR     62  54  74 NW12      29.76R
AUGUSTA-DANIEL CLEAR     62  52  69 NW7       29.77R
SWAINSBORO     FAIR      61  59  94 NW5       29.79R
VIDALIA        MOCLDY    64  59  82 NW6       29.79R
EASTMAN        FAIR      63  56  80 CALM      29.84R
HAZLEHURST     PTSUNNY   67  64  91 NW5       29.79S
ALMA           CLOUDY    68  65  90 NW6       29.79R
WAYCROSS       CLOUDY    67  67 100 NW3       29.78S
JESUP          CLOUDY    70  70 100 CALM      29.78S
BAXLEY         MOCLDY    68  68 100 NW3       29.79R
BRUNSWICK      CLOUDY    73  70  88 W3        29.78S
SAINT SIMONS   CLOUDY    71  68  90 W6        29.76S

$$

SCZ027-028-034-036>038-045-046-048>050-GAZ119-141-041200-
...LAKE AND SUPPLEMENTAL COASTAL OBSERVATIONS...

STATION/POSITION TIME  TEMP    WIND        PRES    WAVE   SWELL
                       AIR SEA DIR/SP/G            HT/PER HT/PER/DIR
                 (UTC) (F)     (DEG/KT/KT) (MB)    (FT/S) (FT/S/D)
WINYAH BAY       1045   69     220/  7     1005.0S
LAKE MURRAY      1000   63     290/  6/  8 1006.4R
ACE BASIN NERRS  1000   68     250/  2     1007.0S
FORT PULASKI     1100   70 74  290/ 10/ 12 1007.9R
SAPELO ISLAND    1100   70     280/  8     1008.0R

$$

ANZ835-935-AMZ111-154-330-350-352-354-370-450-454-472-041200-
...C-MAN AND BUOY OBSERVATIONS...

STATION/POSITION TIME  TEMP    WIND        PRES    WAVE   SWELL
                       AIR SEA DIR/SP/G            HT/PER HT/PER/DIR
                 (UTC) (F)     (DEG/KT/KT) (MB)    (FT/S) (FT/S/D)
BUOY 41004       1050   74 74  250/ 14/ 16 1005.8R   3/ 7   2/ 7
BUOY 41008       NOT AVBL
FOLLY BEACH CMAN 1100   69     260/  7/ 10 1006.8R
CAPERS NEARSHORE 1108   70 71  270/ 10/ 14 1006.4R
FRIPP NEARSHORE  1108   71 72  290/ 14/ 17 1006.4R


STATION/POSITION TIME  TEMP    WIND        PRES    WAVE   SWELL
                       AIR SEA DIR/SP/G            HT/PER HT/PER/DIR
                 (UTC) (F)     (DEG/KT/KT) (MB)    (FT/S) (FT/S/D)
5E ST. MARYS GA  1021      74                N/A     2/ 7
FRYING PAN BUOY  1100   74 73  210/ 14/ 17 1006.0R
BUOY 41025       1050   71 72  230/ 16/ 17 1004.5R   4/ 7   2/170/ 7
CAPE LOOKOUT NC  1100   69     230/  8/ 12 1005.0R
BUOY 41002       1050   73 74  220/ 14/ 16 1009.5R   6/ 6   3/240/ 7
BUOY 41010       1020   78 78  200/ 14/ 16 1009.1R
ST AUGUSTINE FL  1100   71 71  220/  4/  5 1009.5R


$$




USA.gov is the U.S. government's official web portal to all federal, state and local government web resources and services.